Simultaneous Nadir Overpasses (SNOs) Predictions

Prediction of SNOs between LANDSAT-8 and NOAA-19 Satellite Orbit:

Table of predicted SNOs for the next 14.0 days since TLE Epoch: 3/7/2014
Index Date (LANDSAT-8) Time (LANDSAT-8) Lat,Lon (LANDSAT-8) SZA (LANDSAT-8 ) Date (NOAA-19) Time (NOAA-19) Lat,Lon (NOAA-19) SZA (NOAA-19 ) Distance(km) Time Diff (sec)
1 03/08/2014 00:41:30 -71.72, -11.52 103.36 03/08/2014 00:40:24 -71.68, -11.52 103.38 3.61 66
2 03/08/2014 01:30:57 71.61, 155.96 76.54 03/08/2014 01:31:23 71.60, 155.88 76.53 2.93 26
3 03/10/2014 05:25:43 -71.98, -82.14 103.96 03/10/2014 05:24:31 -72.04, -83.18 103.87 36.39 72
4 03/10/2014 06:15:15 71.61, 84.87 75.67 03/10/2014 06:15:23 71.63, 84.84 75.70 2.74 8
5 03/12/2014 10:59:33 71.62, 13.81 74.82 03/12/2014 10:59:22 71.62, 13.90 74.82 3.14 11
6 03/12/2014 11:49:08 -71.25,-179.17 105.56 03/12/2014 11:50:19 -71.24,-178.19 105.59 35.04 71
7 03/14/2014 15:43:51 71.65, -57.23 73.98 03/14/2014 15:43:22 71.66, -57.16 73.99 2.57 29
8 03/14/2014 16:33:21 -71.56, 110.24 106.13 03/14/2014 16:34:25 -71.57, 110.25 106.13 1.33 64
9 03/16/2014 20:28:09 71.70,-128.24 73.15 03/16/2014 20:27:22 71.71,-128.22 73.17 1.27 47
10 03/16/2014 21:17:39 -71.60, 39.23 106.96 03/16/2014 21:18:25 -71.59, 39.22 106.97 1.18 46
11 03/19/2014 01:12:27 71.76, 160.78 72.34 03/19/2014 01:11:22 71.77, 160.70 72.36 2.82 65
12 03/19/2014 02:01:58 -71.61, -31.84 107.82 03/19/2014 02:02:25 -71.63, -31.82 107.80 1.81 27
13 03/21/2014 05:56:39 72.16, 90.39 71.87 03/21/2014 05:55:29 72.18, 88.92 71.92 50.03 70
14 03/21/2014 06:46:16 -71.69,-102.79 108.61 03/21/2014 06:46:25 -71.67,-102.88 108.63 3.69 9




NCC Satellite Simultaneous Nadir Overpasses (SNOs) Prediction Service
